DECAYED

STARLINK-1112, 44925 (Decayed)

Orbit data source: Space-Track

STARLINK-1112, 44925 was a payload satellite owned by SpaceX/Seattle (US) in LEO that was launched on Tue, 07 Jan 2020 UTC via an FALCON 9 launch vehicle from the Air Force Eastern Test Range (AFETR). Payload-class satellites include a variety of spacecraft equipped with specific instruments for various scientific and technological missions. These include communications satellites like Starlink; space stations such as the ISS; scientific satellites like the Hubble; Earth observation satellites from companies like Planet Labs, Umbra, and HawkEye 360; GPS; miniature CubeSats for education and research; and military/defense satellites.

Not visible in the next 10 days
Identifier
44925, 2020-001M
Orbit
Decayed
Country
Flag of USUS
Related business
Manufacturer
SpaceX/Seattle
Mission
Decayed Commercial Communications
Bus & Motor
STARLINK, Unknown motor
Mass
260 kg wet, ~248 kg dry
Launch date (UTC)
2020-01-07 (6 years ago)
Launch vehicle
FALCON 9
Launch site
Air Force Eastern Test Range (AFETR)
Object type
Payload
Rocket body
Debris
Shape & HBR
Box + 1 Pan, 10.1 m
Radar Cross Section
13.562 m², Large (>1 m²)

Expand to show TLE details & history
Last TLE update: 3 months ago

TLE from 3 months ago
0 STARLINK-1112
1 44925U 20001M   26071.85419625  .09170772  12410-4  53374-3 0  9993
2 44925  53.0205 223.7121 0002648 266.8125  93.2619 16.41807799341841
Epoch: 2026-03-12T20:30Z
TLE epoch observation values (Epoch: 2026-03-12T20:30:02.556Z)
Latitude
-0.00005°
Longitude
105.70331°
Altitude
162.024 km
Speed
7.81 km/s
True Right ascension
14h 54m 50s
True Declination
0° 00' 00"
Sunlit
Object was in full shadow at epoch
Visualization orbit readout
Latitude
Unknown
Longitude
Unknown
Altitude
Unknown
Speed
Unknown
Apparent Right ascension
Unknown
Apparent Declination
Unknown
Sunlit
N/A
Visualization observer readout
Local Sidereal Time
21:35:04
Azimuth
Unknown
Elevation
Unknown
Doppler factor
Unknown
Orbital elements
Apogee altitude
163.022 km
Perigee altitude
159.558 km
Semi-major axis
6,539.427 km
Eccentricity
0.00026
Inclination
53.0205°
RAAN
223.7121°
Arg. of periapsis
266.8125°
True anomaly
93.29219°
Mean anomaly
93.2619°
Eccentric anomaly
93.27705°
Mean motion
4.10425 °/min
Orbital period
87.71 mins
BSTAR
0.00053374
Loading maneuver chart data...
Computing Atmospheric mass density...

Documentation

Showing up to 5 results
|